User: anonymous   Login
Location: PACMO
(41.3967°N, 90.3760°W)
Time: 18:15:13
(UTC-06:00)
Language:

NOAA 19 - Orbit

View from above orbital plane
View from above orbital plane
View from above satellite
View from above satellite

Ground track
Ground track

The orbit data is extracted from the following two-line orbital elements,

1 33591U 09005A   14353.18849988  .00000468  00000-0  28109-3 0  5038
2 33591 098.9688 297.8665 0013322 320.8361 152.3630 14.11834304302091
Epoch (UTC): 19 December 2014 04:31:26
Eccentricity: 0.0013322
inclination: 98.9688°
perigee height: 843 km
apogee height: 863 km
right ascension of ascending node: 297.8665°
argument of perigee: 320.8361°
revolutions per day: 14.11834304
mean anomaly at epoch: 152.3630°
orbit number at epoch: 30209

The dashed part of the orbit path shows where the satellite is in the earth's shadow,  

DLR